This demonstration page uses our WeatherBlox Daily Observations layout. Learn more.

Left ArrowRight Arrow

39.01783, -85.05884

Hourly Observations for April 1, 2018

Temp ( °F °C ) Dew Point ( °F °C ) Humidity (%) Winds ( mph kmh ) Pressure ( in mb ) Visibility ( mi km ) Precip ( " mm )
12:32 am 00:32 Cloudy 48 8.9 47 8.3 96 96 SW 13 20 30.09 1019 10 16 N/A
12:52 am 00:52 Cloudy with Light Rain 49 9.4 47 8.3 93 93 SW 12 19 30.06 1018 10 16 N/A
1:30 am 01:30 Cloudy 49 9.4 47 8.3 93 93 WSW 9 15 30.09 1019 10 16 0.01 0.25
1:52 am 01:52 Cloudy 49 9.4 48 8.9 97 97 SW 10 17 30.06 1018 9 14 0.01 0.25
2:47 am 02:47 Cloudy with Drizzle 48 9 48 9 100 100 WSW 9 15 30.09 1019 6 10 N/A
2:52 am 02:52 Cloudy with Drizzle 49 9.4 48 8.9 97 97 W 9 15 30.06 1018 6 10 N/A
3:52 am 03:52 Cloudy with Drizzle 49 9.4 48 8.9 97 97 WNW 9 15 30.06 1018 8 13 N/A
4:23 am 04:23 Cloudy 46 7.8 43 6.1 89 89 N 20 31 30.12 1020 10 16 N/A
4:37 am 04:37 Cloudy 44 6.7 41 5 89 89 N 14 22 30.12 1020 10 16 N/A
4:52 am 04:52 Cloudy 43 6.1 40 4.4 89 89 N 13 20 30.08 1019 10 16 N/A
5:52 am 05:52 Cloudy 41 5 35 1.7 79 79 N 15 24 30.11 1020 10 16 N/A
6:36 am 06:36 Cloudy 40 4.4 34 1.1 79 79 N 13 20 30.15 1021 10 16 N/A
6:52 am 06:52 Cloudy 39 3.9 34 1.1 82 82 N 13 20 30.14 1021 10 16 N/A
7:52 am 07:52 Mostly Cloudy 37 2.8 29 -1.7 73 73 N 13 20 30.17 1022 10 16 N/A
8:52 am 08:52 Mostly Cloudy 38 3.3 29 -1.7 70 70 N 12 19 30.19 1022 10 16 N/A
9:52 am 09:52 Partly Cloudy 40 4.4 28 -2.2 63 63 N 14 22 30.19 1023 10 16 N/A
10:52 am 10:52 Mostly Cloudy 41 5 29 -1.7 62 62 NNE 13 20 30.20 1023 10 16 N/A
11:52 am 11:52 Mostly Cloudy 43 6.1 31 -0.6 63 63 N 9 15 30.20 1023 10 16 N/A
12:52 pm 12:52 Mostly Cloudy 45 7.2 31 -0.6 58 58 NNE 9 15 30.19 1022 10 16 N/A
1:52 pm 13:52 Mostly Cloudy 47 8.3 31 -0.6 54 54 N 9 15 30.16 1021 10 16 N/A
2:52 pm 14:52 Mostly Cloudy 48 8.9 31 -0.6 52 52 N N/A 30.15 1021 10 16 N/A
3:52 pm 15:52 Cloudy 47 8.3 29 -1.7 50 50 N 9 15 30.13 1020 10 16 N/A
4:52 pm 16:52 Cloudy 47 8.3 30 -1.1 52 52 NNW 10 17 30.12 1020 10 16 N/A
5:52 pm 17:52 Cloudy 47 8.3 29 -1.7 50 50 NE 12 19 30.08 1019 10 16 N/A
6:52 pm 18:52 Cloudy 47 8.3 29 -1.7 50 50 NE 10 17 30.06 1018 10 16 N/A
7:52 pm 19:52 Cloudy 46 7.8 28 -2.2 50 50 NNE 12 19 30.04 1017 10 16 N/A
8:52 pm 20:52 Cloudy with Light Rain 44 6.7 28 -2.2 53 53 N 15 24 30.05 1018 10 16 N/A
9:26 pm 21:26 Cloudy with Rain 40 4.4 34 1.1 79 79 N 14 22 30.09 1019 5 8 0.01 0.25
9:52 pm 21:52 Cloudy with Light Rain 38 3.3 34 1.1 86 86 N 14 22 30.11 1020 8 13 0.03 0.76
10:15 pm 22:15 Cloudy with Rain 36 2.2 34 1.1 93 93 NNE 13 20 30.12 1020 4 6 0.04 1.02
10:31 pm 22:31 Cloudy with Light Snow 35 1.7 33 0.6 93 93 N 9 15 30.15 1021 3 4 0.07 1.78
10:41 pm 22:41 Cloudy with Light Snow 33 0.6 33 0.6 100 100 NNE 8 13 30.15 1021 2 3 0.09 2.29
10:52 pm 22:52 Cloudy with Light Snow 33 0.6 33 0.6 100 100 E 10 17 30.07 1018 2 3 0.11 2.79
11:15 pm 23:15 Cloudy with Light Snow 34 1.1 32 undefined 92 92 NE 9 15 30.09 1019 2 3 0.02 0.51
11:30 pm 23:30 Cloudy with Light Snow 33 0.6 32 undefined 96 96 N 6 9 30.15 1021 2 3 0.03 0.76
11:52 pm 23:52 Cloudy with Light Snow 33 0.6 32 undefined 96 96 NNW 5 7 30.11 1020 1 2 0.07 1.78

Powered by AerisWeather